Hourly Data Report for October 12, 2016

All times are specified in Local Standard Time (LST). Add 1 hour to adjust for Daylight Saving Time where and when it is observed.

ARVIAT A
NUNAVUT

61°05'38.000" N
94°04'18.000" W
10.40 m
2300427
71174
YEK

Download Data

Hourly Data (October 2016)
Hourly Data Report for October 12, 2016
Temp Definition
°C
Dew Point Temp Definition
°C
Rel Hum Definition
%
Wind Dir Definition
10's deg

Wind Spd Definition
km/h
Visibility Definition
km
Stn Press Definition
kPa
Hmdx Definition


Wind Chill Definition


Weather Definition


TIME
00:00 Legend Double Dagger -3.6 -4.3 95 28 15 16.1 100.93   -9 LegendNANA
01:00 Legend Double Dagger -3.5 -4.1 96 28 13 16.1 100.92   -8 LegendNANA
02:00 Legend Double Dagger -4.0 -4.7 95 30 22 16.1 100.88   -11 LegendNANA
03:00 Legend Double Dagger -4.4 -6.6 85 33 30 16.1 100.89   -12 LegendNANA
04:00 Legend Double Dagger -5.1 -7.3 85 31 15 16.1 100.87   -11 LegendNANA
05:00 Legend Double Dagger -6.1 -7.7 89 28 13 16.1 100.84   -11 LegendNANA
06:00 Legend Double Dagger -6.7 -8.4 88 27 13 16.1 100.83   -12 LegendNANA
07:00 Legend Double Dagger -7.1 -8.6 89 28 13 16.1 100.81   -13 LegendNANA
08:00 Legend Double Dagger -7.0 -8.4 90 27 18 16.1 100.78   -14 LegendNANA
09:00 Legend Double Dagger -6.7 -8.2 89 27 21 16.1 100.73   -14 LegendNANA
10:00 Legend Double Dagger -5.5 -7.7 84 25 21 16.1 100.67   -12 LegendNANA
11:00 Legend Double Dagger -4.4 -7.2 81 27 24 16.1 100.60   -11 LegendNANA
12:00 Legend Double Dagger -4.5 -7.7 78 29 24 16.1 100.56   -12 LegendNANA
13:00 Legend Double Dagger -4.3 -7.8 77 28 26 16.1 100.52   -12 LegendNANA
14:00 Legend Double Dagger -4.5 -8.7 72 29 26 16.1 100.47   -12 Snow
15:00 Legend Double Dagger -4.3 -10.0 65 29 24 16.1 100.43   -11 LegendNANA
16:00 Legend Double Dagger -3.9 -9.3 66 27 22 16.1 100.36   -10 LegendNANA
17:00 Legend Double Dagger -3.8 -7.1 78 26 22 16.1 100.31   -10 Snow
18:00 Legend Double Dagger -4.4 -5.5 92 30 46 2.4 100.25   -14 Snow
19:00 Legend Double Dagger -4.5 -5.4 94 30 39 1.6 100.27   -13 Snow
20:00 Legend Double Dagger -4.8 -5.8 93 30 50 2.0 100.25   -15 Snow
21:00 Legend Double Dagger -5.2 -6.8 88 30 55 1.6 100.21   -16 Snow
22:00 Legend Double Dagger -5.4 -8.2 81 30 55 16.1 100.20   -16 Snow
23:00 Legend Double Dagger -5.4 -7.9 83 30 55 16.1 100.17   -16 Snow

Notes on Data Quality.

Legend

  • E = Estimated
  • M = Missing
  • NA = Not Available
  • ‡ = Partner data that is not subject to review by the National Climate Archives
Date modified: